Weather in Svetlopolyansk

Russia / Kirov Oblast     59°25′07″N   52°21′40″E
temp.,
°C
wind,
m/s
gust,
m/s
humid.,
%
clouds,
%
prec.,
mm/h
press.,
hPa
HPBL,
m
23 april, fri
fri2300:00+5s4119099 0.0 1023593
03:00+5ssw3991100 0.2 1024452
06:00+5s279399 0.0 1024314
09:00+9ssw356542 0.0 10251083
12:00+10ssw2463100 0.1 1025952
15:00+9s2468100 0.1 1025477
18:00+8se2574100 0.0 1025147
21:00+7sse2879100 0.0 1025240
24 april, sat
sat2400:00+6se3887100 0.1 1024265
03:00+6ese2690100 0.1 1023191
06:00+6ese3988100 0.0 1023408
09:00+9ese4764100 0.0 1021963
12:00+10ese5755100 0.0 10191541
15:00+9e4764100 0.0 10171108
18:00+8ese5880100 0.1 10161090
21:00+6ese4892100 0.9 10141027
25 april, sun
sun2500:00+5e4896100 0.8 1012944
03:00+4ese4997100 1.6 1010790
06:00+4ese5997100 0.8 1008976
09:00+5ese51086100 1.1 10061046
12:00+3ese51196100 0.7 1005716
15:00+3e41097100 1.4 1003698
18:00+3ese3897100 1.9 1002904
21:00+2s3997100 2.2 1003663
26 april, mon
mon2600:00+2ssw4897100 0.2 1003756
03:00+1ssw51197100 0.8 1004889
06:00+1sw41197100 0.9 1005582
09:00+2sw51396100 1.8 1006899
12:00+2sw61395100 1.1 10071039
15:00+4wsw61484100 2.7 10081324
18:00+5wsw4976100 0.1 1008608
21:00+1ssw399013 0.2 1009215
27 april, tue
tue2700:00+1sw310915 0.0 1009279
03:00−1ssw29950 0.0 1010196
06:00+2sw36841 0.0 1009243
09:00+7sw35615 0.0 10091167
12:00+9sw2545100 0.0 10072028
15:00+9s345294 0.0 10051484
18:00+6se1483100 0.3 1004260
21:00+5ese3987100 1.0 1002357